パンスターズ彗星

C/2014 OE4 ( PanSTARRS )

English version
Home page
Updated on April 13, 2018

---------------------------------------------------------------------

・ プロフィール

発見日 2014年7月26日
発見光度 20.7等
発見者 Pan-STARRS 1 telescope (Haleakala)

・ 写真集

・ 軌道要素

Epoch 2016 Nov. 28.0 TT = JDT 2457720.5
T 2016 Dec. 10.75288 TT                                 MPCW
q   6.2442880            (2000.0)            P               Q
z  +0.0000889      Peri.   65.74367     -0.08367935     +0.50406471
 +/-0.0000002      Node   240.40004     -0.74841252     +0.53775891
e   0.9994448      Incl.   81.34884     +0.65793348     +0.67582107
From 1328 observations 2014 May 8-2018 Mar. 17, mean residual 0".4.

・ 光度変化

        m1 = -8.0 + 5 logΔ + 25 log r(t - 130)

---------------------------------------------------------------------

軌道要素はM.P.E.C. 2018-F152に掲載されたものです。
光度グラフはComet for Windowsで作成したものです。

---------------------------------------------------------------------

Copyright(C) Seiichi Yoshida (comet@aerith.net). All rights reserved.